DW0774 Weather Reports


Display with metric or nautical units.
time (UTC)temp
F
wind
direction
speed
MPH
gust
MPH
rain 1hr
in
rain 24hr
in
rain mn
in
humidity
%
barometer
mb
20260505073015 36 89 3.0 9.0 0.01 0.33 0.01 95 1014.0
20260505071512 36 143 1.0 8.0 0.00 0.32 0.00 95 1014.0
20260505070006 36 155 5.0 11.0 0.00 0.32 0.00 95 1013.9
20260505064506 37 157 4.0 10.0 0.00 0.32 0.00 95 1014.0
20260505063030 37 164 3.0 8.0 0.00 0.32 0.00 95 1014.2
20260505061505 36 142 3.0 7.0 0.00 0.32 0.00 95 1014.2
20260505060004 36 134 1.0 5.0 0.00 0.32 0.00 95 1014.3
20260505054504 36 78 0.0 0.0 0.00 0.32 0.32 94 1014.4
20260505053009 36 78 0.0 0.0 0.00 0.32 0.32 94 1014.3
20260505051503 36 78 0.0 3.0 0.00 0.32 0.32 94 1014.3
20260505041504 37 147 3.0 9.0 0.00 0.32 0.32 94 1014.0
20260505040013 37 163 5.0 11.0 0.00 0.32 0.32 94 1014.0
20260505034512 36 130 5.0 9.0 0.00 0.32 0.32 94 1014.0
20260505033008 36 139 2.0 8.0 0.00 0.32 0.32 94 1014.2
20260505031504 36 118 0.0 4.0 0.00 0.32 0.32 94 1013.9
20260505030004 36 138 0.0 1.0 0.00 0.32 0.32 94 1013.8
20260505024503 36 157 0.0 2.0 0.01 0.32 0.32 94 1013.7
20260505023005 36 178 1.0 5.0 0.02 0.32 0.32 94 1013.6
20260505021512 36 142 4.0 10.0 0.02 0.32 0.32 94 1013.5
20260505020003 36 150 6.0 9.0 0.05 0.32 0.32 93 1013.4
20260505014508 36 307 4.0 9.0 0.06 0.31 0.31 93 1013.9
20260505013004 36 306 4.0 8.0 0.06 0.30 0.30 93 1014.0
20260505011543 36 288 2.0 8.0 0.10 0.30 0.30 93 1014.0
20260505010019 36 322 4.0 7.0 0.14 0.27 0.27 93 1014.1
20260505004512 36 360 6.0 11.0 0.18 0.25 0.25 92 1014.2
20260505003007 36 23 10.0 15.0 0.17 0.24 0.24 91 1014.2
20260505001510 36 17 5.0 18.0 0.13 0.20 0.20 90 1014.5
20260505000006 38 360 6.0 17.0 0.06 0.13 0.13 86 1014.4
20260504234528 42 5 16.0 25.0 0.00 0.07 0.07 79 1014.0
20260504233020 43 25 1.0 12.0 0.00 0.07 0.07 79 1013.6
20260504231508 43 95 7.0 12.0 0.01 0.07 0.07 78 1013.6
20260504230014 44 76 3.0 15.0 0.01 0.07 0.07 75 1013.5
20260504224513 45 137 6.0 13.0 0.01 0.07 0.07 77 1013.5
20260504223006 47 132 9.0 18.0 0.01 0.07 0.07 70 1013.3
20260504221519 47 340 1.0 9.0 0.00 0.06 0.06 58 1013.2
20260504220024 47 11 11.0 20.0 0.00 0.06 0.06 59 1012.5
20260504214510 48 5 10.0 24.0 0.00 0.06 0.06 58 1012.9
20260504213016 51 31 4.0 9.0 0.00 0.06 0.06 59 1012.9
20260504211512 49 5 1.0 9.0 0.00 0.06 0.06 57 1013.1
20260504210016 48 31 8.0 13.0 0.01 0.06 0.06 74 1013.4
20260504204525 46 321 9.0 18.0 0.03 0.06 0.06 70 1013.8
20260504203012 46 342 4.0 8.0 0.04 0.06 0.06 76 1013.7
20260504201503 43 340 5.0 13.0 0.05 0.06 0.06 79 1014.0
20260504200003 42 342 8.0 17.0 0.05 0.05 0.05 76 1014.1
20260504194519 42 284 8.0 16.0 0.03 0.03 0.03 76 1014.4
20260504193003 42 360 11.0 23.0 0.02 0.02 0.02 71 1014.3
20260504191508 46 303 14.0 26.0 0.01 0.01 0.01 56 1014.3
20260504190008 48 29 9.0 14.0 0.00 0.00 0.00 57 1014.2
20260504184504 46 17 12.0 18.0 0.00 0.00 0.00 63 1014.2
20260504183002 49 342 19.0 31.0 0.00 0.00 0.00 47 1014.6
20260504181518 54 329 9.0 18.0 0.00 0.00 0.00 37 1014.3
20260504180007 54 280 3.0 13.0 0.00 0.00 0.00 38 1014.4
20260504174512 54 202 3.0 21.0 0.00 0.00 0.00 38 1014.4
20260504173008 54 269 7.0 16.0 0.00 0.00 0.00 38 1014.6
20260504171534 53 201 8.0 19.0 0.00 0.00 0.00 40 1014.5
20260504081509 44 217 2.0 7.0 0.00 0.00 0.00 29 1015.5